Terminal Aerodrome Forecast
Issued by NWS Milwaukee/Sullivan, WI

Home | Current Version | Previous Version | Text Only | Print | Product List | Glossary On
Versions: 1 2 3 4 5 6 7 8 9 10 11 12 13 14 15 16 17 18 19 20 21 22 23 24 25 26 27 28 29 30 31 32 33 34 35 36 37 38 39 40 41 42 43 44 45 46 47 48 49 50
000
FTUS43 KMKX 281145
TAFMKE
TAF
KMKE 281145Z 2812/2918 10006KT P6SM FEW250
     FM282100 11008KT P6SM VCTS BKN250CB
     FM282300 09007KT 4SM -TSRA SCT030 BKN040CB OVC080
     FM290200 09006KT 6SM -SHRA VCTS BKN035CB OVC050
     FM290600 13006KT P6SM VCSH SCT050 OVC070
     FM291500 13007KT P6SM SCT030 OVC070=

USA.gov is the U.S. government's official web portal to all federal, state and local government web resources and services.